LEMUR-2 CHRIS

Last updated on Fri Jun 10 2016 10:38:16 GMT+0100 (British Summer Time)

1 40933U 15052D 16162.07609272 .00001318 00000-0 92415-4 0 9999 2 40933 6.0059 3.9113 0014563 23.7763 336.3198 14.77307982 37893
UTC large
Height (km)
Speed (km/s)
/
Latitude / Longitude
Inclination (degrees)
Orbital Period (minutes)
Azimuth
Elevation
Range (km)
Doppler Factor

Next 0 passes for location: London (51.5072 / 0.1276)

Sorry there are no passes over London.